Weather History for KPMV - November, 2012

Change the Weather History Date:

Monday, November 5, 2012

  Actual Average (KOFF) Record (KOFF)
Temperature  
Mean Temperature 44 °F -  
Max Temperature 46 °F 52 °F 73 °F (2001)
Min Temperature 41 °F 33 °F 24 °F (2010)
Degree Days  
Heating Degree Days 22    
Moisture  
Dew Point 42 °F    
Average Humidity 97    
Maximum Humidity 99    
Minimum Humidity 93    
Precipitation  
Precipitation 0.00 in - - ()
Sea Level Pressure  
Sea Level Pressure 30.09 in    
Wind  
Wind Speed 11 mph (NNW)    
Max Wind Speed 21 mph    
Max Gust Speed 26 mph    
Visibility 2 miles    
Events Fog    
Averages and records for this station are not official NWS values.
T = Trace of Precipitation, MM = Missing Value Source: NWS Daily Summary

Daily Weather History Graph

Daily Weather History Graph

Search for Another Location

Airport or City:

Trip Planner

Search our weather history database for the weather conditions in past years. The results will help you decide how hot, cold, wet, or windy it might be!

Date:

Astronomy

Nov. 05, 2012 Rise Set
Actual Time 6:59 AM CST 5:14 PM CST
Civil Twilight 6:30 AM CST 5:43 PM CST
Nautical Twilight 5:58 AM CST 6:15 PM CST
Astronomical Twilight 5:26 AM CST 6:47 PM CST
Moon 10:52 PM CST (11/5) 12:19 PM CST (11/5)
Length of Visible Light 11h 12m
Length of Day
10h 14m
Waning Gibbous, 62% of the Moon is Illuminated
Nov 5
Waning Gibbous
Nov 6
Last Quarter
Nov 13
New
Nov 20
First Quarter
Nov 28
Full

Hourly Weather History & Observations

Time (CST) Temp. Windchill Dew Point Humidity Pressure Visibility Wind Dir Wind Speed Gust Speed Precip Events Conditions
12:15 AM 46.0 °F 41.0 °F 45.0 °F 96% 30.02 in 4.0 mi WNW 10.4 mph - N/A   Light Drizzle
12:35 AM 45.9 °F 40.0 °F 44.8 °F 96% 30.01 in 3.0 mi NW 12.7 mph - N/A   Overcast
12:55 AM 45.9 °F 40.8 °F 44.8 °F 96% 30.02 in 3.0 mi NW 10.4 mph - N/A   Overcast
1:15 AM 45.9 °F 40.8 °F 44.8 °F 96% 30.01 in 3.0 mi NW 10.4 mph - N/A   Overcast
1:35 AM 46.0 °F 41.0 °F 45.0 °F 96% 30.02 in 3.0 mi NW 10.4 mph - N/A   Overcast
1:55 AM 46.4 °F 41.5 °F 45.1 °F 95% 30.02 in 3.0 mi NW 10.4 mph - N/A   Overcast
2:15 AM 46.4 °F 40.4 °F 45.3 °F 96% 30.02 in 3.0 mi NW 13.8 mph - N/A   Overcast
2:35 AM 46.2 °F 40.8 °F 45.0 °F 95% 30.02 in 4.0 mi NW 11.5 mph - N/A   Overcast
2:55 AM 45.5 °F 38.9 °F 44.1 °F 95% 30.02 in 4.0 mi NW 15.0 mph - N/A   Overcast
3:15 AM 45.1 °F 38.8 °F 43.9 °F 95% 30.03 in 4.0 mi NW 13.8 mph - N/A   Overcast
3:35 AM 44.8 °F 37.1 °F 43.5 °F 95% 30.02 in 2.5 mi NW 18.4 mph 24.2 mph N/A   Overcast
3:55 AM 44.6 °F 37.8 °F 43.2 °F 95% 30.02 in 3.0 mi NW 15.0 mph 24.2 mph N/A   Overcast
4:15 AM 44.2 °F 36.7 °F 43.0 °F 95% 30.03 in 4.0 mi NW 17.3 mph 25.3 mph N/A   Overcast
4:35 AM 43.9 °F 36.5 °F 42.3 °F 94% 30.03 in 5.0 mi NNW 16.1 mph - N/A   Overcast
4:55 AM 43.7 °F 35.7 °F 41.9 °F 93% 30.03 in 5.0 mi NNW 18.4 mph 24.2 mph N/A   Overcast
5:15 AM 43.3 °F 35.5 °F 41.9 °F 95% 30.03 in 5.0 mi NNW 17.3 mph 21.9 mph N/A   Overcast
5:35 AM 43.3 °F 35.5 °F 41.9 °F 95% 30.04 in 5.0 mi NW 17.3 mph 20.7 mph N/A   Overcast
5:55 AM 43.3 °F 35.5 °F 41.9 °F 95% 30.04 in 5.0 mi NW 17.3 mph 24.2 mph N/A   Overcast
6:15 AM 43.0 °F 34.8 °F 41.5 °F 95% 30.04 in 5.0 mi NNW 18.4 mph 24.2 mph N/A   Overcast
6:35 AM 42.8 °F 34.0 °F 41.2 °F 94% 30.04 in 4.0 mi NNW 20.7 mph 26.5 mph N/A   Overcast
6:55 AM 42.8 °F 34.8 °F 41.2 °F 94% 30.05 in 4.0 mi NNW 17.3 mph 21.9 mph N/A   Overcast
7:15 AM 42.8 °F 35.8 °F 41.2 °F 94% 30.06 in 4.0 mi NNW 13.8 mph - N/A   Overcast
7:35 AM 42.3 °F 34.1 °F 41.0 °F 95% 30.06 in 4.0 mi NNW 17.3 mph 23.0 mph N/A   Overcast
7:55 AM 42.1 °F 34.2 °F 41.0 °F 96% 30.08 in 3.0 mi NNW 16.1 mph 21.9 mph N/A   Overcast
8:15 AM 41.9 °F 34.6 °F 41.0 °F 97% 30.09 in 1.8 mi NNW 13.8 mph - N/A   Overcast
8:35 AM 41.5 °F 34.2 °F 40.5 °F 96% 30.09 in 0.8 mi NNW 13.8 mph 21.9 mph N/A   Light Drizzle
8:55 AM 41.4 °F 33.6 °F 40.5 °F 97% 30.10 in 1.0 mi NNW 15.0 mph 19.6 mph N/A   Overcast
9:15 AM 41.4 °F 34.7 °F 40.5 °F 97% 30.11 in 1.0 mi NNW 11.5 mph - N/A   Overcast
9:35 AM 41.4 °F 34.7 °F 40.6 °F 97% 30.11 in 1.2 mi NNW 11.5 mph 19.6 mph N/A   Overcast
9:55 AM 41.4 °F 35.7 °F 40.6 °F 97% 30.13 in 1.2 mi NNW 9.2 mph - N/A   Overcast
10:15 AM 41.4 °F 34.3 °F 40.6 °F 97% 30.13 in 1.2 mi NNW 12.7 mph 17.3 mph N/A   Overcast
10:35 AM 41.7 °F 35.6 °F 41.0 °F 97% 30.13 in 1.2 mi North 10.4 mph - N/A   Overcast
10:55 AM 41.9 °F 36.3 °F 41.2 °F 97% 30.14 in 1.2 mi North 9.2 mph - N/A   Overcast
11:15 AM 42.1 °F 36.1 °F 41.4 °F 97% 30.14 in 1.8 mi North 10.4 mph - N/A   Overcast
11:35 AM 42.3 °F 37.3 °F 41.5 °F 97% 30.14 in 2.5 mi North 8.1 mph - N/A   Overcast
11:55 AM 42.4 °F 37.5 °F 41.5 °F 97% 30.13 in 3.0 mi NNW 8.1 mph - N/A   Overcast
12:15 PM 42.8 °F 38.0 °F 41.9 °F 97% 30.13 in 5.0 mi North 8.1 mph - N/A   Overcast
12:35 PM 42.8 °F 38.0 °F 41.5 °F 95% 30.13 in 4.0 mi North 8.1 mph - N/A   Overcast
12:55 PM 42.4 °F 37.5 °F 41.4 °F 96% 30.13 in 2.0 mi NNW 8.1 mph - N/A   Overcast
1:15 PM 41.9 °F 35.9 °F 41.0 °F 97% 30.13 in 1.2 mi NNW 10.4 mph - N/A   Overcast
1:35 PM 41.9 °F 36.3 °F 41.0 °F 97% 30.13 in 1.2 mi NW 9.2 mph - N/A   Overcast
1:55 PM 41.9 °F 35.4 °F 41.0 °F 97% 30.12 in 1.0 mi NW 11.5 mph - N/A   Overcast
2:15 PM 41.5 °F 35.4 °F 41.0 °F 98% 30.12 in 1.0 mi NNW 10.4 mph - N/A   Overcast
2:35 PM 41.7 °F 36.1 °F 41.0 °F 97% 30.11 in 1.0 mi NNW 9.2 mph - N/A   Overcast
2:55 PM 41.5 °F 35.4 °F 41.0 °F 98% 30.11 in 0.8 mi NNW 10.4 mph - N/A   Overcast
3:15 PM 41.5 °F 35.9 °F 41.0 °F 98% 30.11 in 0.5 mi NNW 9.2 mph - N/A Fog Fog
3:35 PM 41.7 °F 38.0 °F 41.0 °F 97% 30.11 in 0.8 mi NNW 5.8 mph - N/A   Overcast
3:55 PM 41.9 °F 38.2 °F 41.2 °F 97% 30.13 in 1.0 mi North 5.8 mph - N/A   Overcast
4:15 PM 41.5 °F 35.9 °F 41.0 °F 98% 30.14 in 1.2 mi NNW 9.2 mph - N/A   Overcast
4:35 PM 41.4 °F 35.2 °F 40.6 °F 97% 30.14 in 1.2 mi NW 10.4 mph - N/A   Overcast
4:55 PM 41.4 °F 36.8 °F 40.6 °F 97% 30.13 in 1.5 mi NNW 6.9 mph - N/A   Overcast
5:15 PM 41.2 °F 36.6 °F 40.5 °F 97% 30.12 in 1.5 mi NNW 6.9 mph - N/A   Overcast
5:35 PM 41.2 °F 38.2 °F 40.5 °F 97% 30.12 in 1.8 mi NNW 4.6 mph - N/A   Overcast
5:55 PM 41.2 °F 39.2 °F 40.6 °F 98% 30.11 in 1.8 mi North 3.5 mph - N/A   Overcast
6:15 PM 41.2 °F - 40.6 °F 98% 30.11 in 1.5 mi Calm Calm - N/A   Overcast
6:35 PM 41.2 °F - 40.8 °F 99% 30.11 in 1.5 mi Calm Calm - N/A   Overcast
6:55 PM 41.4 °F - 41.0 °F 99% 30.12 in 1.8 mi Calm Calm - N/A   Overcast
7:15 PM 41.2 °F 38.2 °F 40.6 °F 98% 30.13 in 0.5 mi West 4.6 mph - N/A Fog Fog
7:35 PM 41.0 °F 37.1 °F 40.5 °F 98% 30.13 in 0.5 mi WNW 5.8 mph - N/A Fog Fog
7:55 PM 41.0 °F - 40.5 °F 98% 30.11 in 0.8 mi Calm Calm - N/A   Overcast
8:15 PM 41.0 °F - 40.3 °F 97% 30.11 in 1.2 mi Calm Calm - N/A   Overcast
8:35 PM 41.0 °F - 40.5 °F 98% 30.12 in 1.5 mi Calm Calm - N/A   Overcast
8:55 PM 41.0 °F - 40.5 °F 98% 30.11 in 1.8 mi Calm Calm - N/A   Overcast
9:15 PM 41.0 °F - 40.5 °F 98% 30.11 in 2.0 mi Calm Calm - N/A   Overcast
9:35 PM 41.0 °F - 40.5 °F 98% 30.11 in 1.8 mi Calm Calm - N/A   Overcast
9:55 PM 41.0 °F - 40.5 °F 98% 30.10 in 2.0 mi Calm Calm - N/A   Overcast
10:15 PM 41.2 °F - 40.6 °F 98% 30.10 in 2.0 mi Calm Calm - N/A   Overcast
10:35 PM 41.0 °F - 40.5 °F 98% 30.09 in 2.0 mi Calm Calm - N/A   Overcast
10:55 PM 41.0 °F - 40.5 °F 98% 30.08 in 2.5 mi Calm Calm - N/A   Overcast
11:15 PM 41.2 °F 39.2 °F 40.6 °F 98% 30.07 in 2.5 mi South 3.5 mph - N/A   Overcast
11:35 PM 41.0 °F 38.0 °F 40.5 °F 98% 30.06 in 2.5 mi SSE 4.6 mph - N/A   Overcast
11:55 PM 41.2 °F 39.2 °F 40.5 °F 97% 30.06 in 2.5 mi South 3.5 mph - N/A   Overcast